OZ1IEP-5 Weather Reports


time (UTC)temp
C
wind
direction
speed
KPH
gust
KPH
rain 1hr
cm
rain 24hr
cm
rain mn
cm
humidity
%
barometer
mb
20260508204006 7 129 0.0 0.0 0.00 0.00 0.00 63 1022.8
20260508203008 7 129 0.0 0.0 0.00 0.00 0.00 62 1022.6
20260508202006 7 129 0.0 0.0 0.00 0.00 0.00 60 1022.5
20260508201005 8 129 0.0 0.0 0.00 0.00 0.00 58 1022.5
20260508200009 8 129 0.0 0.0 0.00 0.00 0.00 57 1022.5
20260508195005 8 129 0.0 0.0 0.00 0.00 0.00 56 1022.5
20260508194005 8 129 0.0 1.6 0.00 0.00 0.00 55 1022.5
20260508193007 9 129 1.6 3.2 0.00 0.00 0.00 53 1022.1
20260508192005 10 129 0.0 3.2 0.00 0.00 0.00 51 1022.0
20260508191005 10 129 0.0 4.8 0.00 0.00 0.00 50 1022.0
20260508190016 10 129 1.6 9.7 0.00 0.00 0.00 49 1022.0
20260508185005 11 138 3.2 9.7 0.00 0.00 0.00 51 1022.0
20260508184006 11 132 3.2 8.0 0.00 0.00 0.00 52 1021.7
20260508183007 11 131 3.2 9.7 0.00 0.00 0.00 51 1021.6
20260508182005 12 149 4.8 14.5 0.00 0.00 0.00 50 1021.5
20260508181005 12 144 8.0 14.5 0.00 0.00 0.00 50 1021.5
20260508180007 12 154 6.4 16.1 0.00 0.00 0.00 49 1021.5
20260508175005 12 152 8.0 16.1 0.00 0.00 0.00 50 1021.5
20260508174005 12 160 8.0 19.3 0.00 0.00 0.00 49 1021.5
20260508173008 12 148 9.7 19.3 0.00 0.00 0.00 48 1021.4
20260508172006 12 163 6.4 20.9 0.00 0.00 0.00 47 1021.4
20260508171005 12 151 3.2 19.3 0.00 0.00 0.00 46 1021.3
20260508170007 12 154 9.7 19.3 0.00 0.00 0.00 44 1021.2
20260508165005 13 150 4.8 19.3 0.00 0.00 0.00 43 1021.2
20260508164005 13 152 4.8 19.3 0.00 0.00 0.00 42 1021.3
20260508163008 13 160 4.8 19.3 0.00 0.00 0.00 41 1021.2
20260508162005 13 165 9.7 19.3 0.00 0.00 0.00 39 1021.2
20260508161005 13 150 9.7 22.5 0.00 0.00 0.00 38 1021.3
20260508160007 14 150 9.7 19.3 0.00 0.00 0.00 37 1021.2
20260508155005 14 148 9.7 19.3 0.00 0.00 0.00 37 1021.1
20260508154005 14 140 11.3 25.7 0.00 0.00 0.00 37 1021.0
20260508153008 15 143 12.9 27.4 0.00 0.00 0.00 39 1021.1
20260508152006 15 146 9.7 25.7 0.00 0.00 0.00 37 1021.2
20260508151005 15 130 9.7 24.1 0.00 0.00 0.00 38 1021.3
20260508150009 15 146 11.3 27.4 0.00 0.00 0.00 39 1021.3
20260508145005 15 140 16.1 27.4 0.00 0.00 0.00 38 1021.4
20260508144005 16 142 11.3 27.4 0.00 0.00 0.00 37 1021.5
20260508143009 16 149 11.3 24.1 0.00 0.00 0.00 39 1021.5
20260508142006 16 120 8.0 29.0 0.00 0.00 0.00 36 1021.5
20260508141006 16 136 9.7 25.7 0.00 0.00 0.00 37 1021.5
20260508140008 16 121 3.2 20.9 0.00 0.00 0.00 36 1021.5
20260508135006 16 136 11.3 24.1 0.00 0.00 0.00 35 1021.5
20260508134006 16 157 11.3 24.1 0.00 0.00 0.00 38 1021.5
20260508133008 16 146 8.0 24.1 0.00 0.00 0.00 37 1021.5
20260508132006 16 132 8.0 24.1 0.00 0.00 0.00 37 1021.6
20260508131006 16 145 11.3 19.3 0.00 0.00 0.00 37 1021.6
20260508130008 16 107 3.2 20.9 0.00 0.00 0.00 37 1021.6
20260508125006 16 159 8.0 20.9 0.00 0.00 0.00 39 1021.6
20260508124006 16 170 9.7 22.5 0.00 0.00 0.00 39 1021.6
20260508123008 16 158 8.0 19.3 0.00 0.00 0.00 39 1021.8
20260508122006 16 149 14.5 24.1 0.00 0.00 0.00 40 1021.9
20260508121005 16 143 8.0 22.5 0.00 0.00 0.00 39 1021.8
20260508120008 16 149 9.7 19.3 0.00 0.00 0.00 39 1021.8
20260508115006 16 144 3.2 22.5 0.00 0.00 0.00 40 1021.8
20260508114006 16 149 8.0 19.3 0.00 0.00 0.00 37 1021.8
20260508113009 15 158 8.0 22.5 0.00 0.00 0.00 38 1021.9
20260508112006 15 152 12.9 22.5 0.00 0.00 0.00 37 1021.9
20260508111006 15 135 6.4 20.9 0.00 0.00 0.00 38 1021.9
20260508110008 15 154 11.3 24.1 0.00 0.00 0.00 37 1021.8
20260508105006 15 130 12.9 24.1 0.00 0.00 0.00 34 1021.9
20260508104005 15 132 8.0 27.4 0.00 0.00 0.00 34 1021.8
20260508103008 15 122 14.5 24.1 0.00 0.00 0.00 35 1021.8
20260508102006 15 141 16.1 27.4 0.00 0.00 0.00 38 1021.8
20260508101006 15 136 14.5 25.7 0.00 0.00 0.00 38 1021.8
20260508100008 15 149 14.5 25.7 0.00 0.00 0.00 42 1021.8
20260508095006 14 130 6.4 24.1 0.00 0.00 0.00 43 1021.8
20260508094005 14 127 6.4 25.7 0.00 0.00 0.00 48 1021.8
20260508093008 14 160 9.7 25.7 0.00 0.00 0.00 51 1021.7
20260508092006 14 123 9.7 24.1 0.00 0.00 0.00 55 1021.5
20260508091005 15 136 11.3 24.1 0.00 0.00 0.00 57 1021.5
20260508090008 14 136 11.3 27.4 0.00 0.00 0.00 57 1021.5
20260508085005 14 114 9.7 19.3 0.00 0.00 0.00 58 1021.5
20260508084005 14 121 6.4 20.9 0.00 0.00 0.00 60 1021.5
20260508083008 13 149 8.0 16.1 0.00 0.00 0.00 63 1021.4
20260508082005 13 133 3.2 19.3 0.00 0.00 0.00 64 1021.3
20260508081005 12 125 8.0 19.3 0.00 0.00 0.00 64 1021.3
20260508080008 12 75 0.0 11.3 0.00 0.00 0.00 69 1021.3
20260508075006 12 123 6.4 20.9 0.00 0.00 0.00 68 1021.2
20260508074005 12 124 4.8 14.5 0.00 0.00 0.00 71 1021.0
20260508073009 11 126 3.2 14.5 0.00 0.00 0.00 74 1021.0
20260508072006 11 111 3.2 14.5 0.00 0.00 0.00 75 1020.9
20260508071006 11 135 0.0 4.8 0.00 0.00 0.00 76 1020.9
20260508070008 10 102 1.6 4.8 0.00 0.00 0.00 77 1020.8
20260508065006 10 67 0.0 3.2 0.00 0.00 0.00 79 1020.7
20260508064005 10 73 0.0 1.6 0.00 0.00 0.00 81 1020.5
20260508063008 10 84 0.0 8.0 0.00 0.00 0.00 83 1020.4
20260508062005 9 63 0.0 3.2 0.00 0.00 0.00 85 1020.4
20260508061006 8 63 1.6 4.8 0.00 0.00 0.00 88 1020.2
20260508060008 8 41 0.0 0.0 0.00 0.00 0.00 90 1020.2
20260508055006 8 34 0.0 0.0 0.00 0.00 0.00 91 1020.2
20260508054005 8 34 0.0 0.0 0.00 0.00 0.00 91 1020.0
20260508053008 7 34 0.0 0.0 0.00 0.00 0.00 91 1020.0
20260508052006 7 34 0.0 0.0 0.00 0.00 0.00 91 1020.0
20260508051006 7 34 0.0 0.0 0.00 0.00 0.00 91 1020.0
20260508050008 7 34 0.0 0.0 0.00 0.00 0.00 91 1020.0
20260508045006 7 34 0.0 0.0 0.00 0.00 0.00 92 1019.9
20260508044006 6 34 0.0 0.0 0.00 0.00 0.00 92 1019.9
20260508043008 6 34 0.0 0.0 0.00 0.00 0.00 91 1019.9
20260508042006 5 34 0.0 0.0 0.00 0.00 0.00 91 1019.9
20260508041005 5 34 0.0 0.0 0.00 0.00 0.00 91 1019.8
20260508040015 5 34 0.0 0.0 0.00 0.00 0.00 91 1019.7
20260508035006 5 34 0.0 0.0 0.00 0.00 0.00 91 1019.6
20260508034007 5 34 0.0 0.0 0.00 0.00 0.00 90 1019.5
20260508033009 5 34 0.0 0.0 0.00 0.00 0.00 90 1019.5
20260508032007 5 34 0.0 0.0 0.00 0.00 0.00 90 1019.5
20260508031007 5 34 0.0 0.0 0.00 0.00 0.00 90 1019.4
20260508030007 5 34 0.0 0.0 0.00 0.00 0.00 90 1019.4
20260508025005 5 34 0.0 0.0 0.00 0.00 0.00 90 1019.4
20260508024005 5 34 0.0 0.0 0.00 0.00 0.00 90 1019.3
20260508023007 5 34 0.0 0.0 0.00 0.00 0.00 90 1019.3
20260508022006 5 34 0.0 0.0 0.00 0.00 0.00 89 1019.3
20260508021005 5 34 0.0 0.0 0.00 0.00 0.00 89 1019.3
20260508020008 5 34 0.0 0.0 0.00 0.00 0.00 89 1019.3
20260508015005 5 34 0.0 0.0 0.00 0.00 0.00 88 1019.3
20260508014006 5 34 0.0 0.0 0.00 0.00 0.00 88 1019.2
20260508013008 5 34 0.0 0.0 0.00 0.00 0.00 88 1019.1
20260508012006 5 34 0.0 0.0 0.00 0.00 0.00 87 1019.0
20260508011005 5 34 0.0 0.0 0.00 0.00 0.00 87 1019.1
20260508010007 5 34 0.0 0.0 0.00 0.00 0.00 88 1019.0
20260508005005 5 34 0.0 0.0 0.00 0.00 0.00 87 1018.9
20260508004006 5 34 0.0 0.0 0.00 0.00 0.00 87 1018.9
20260508003008 5 34 0.0 0.0 0.00 0.00 0.00 87 1018.9
20260508002005 5 34 0.0 0.0 0.00 0.00 0.00 87 1018.9
20260508001005 5 34 0.0 0.0 0.00 0.00 0.00 87 1018.9
20260508000008 5 34 0.0 0.0 0.00 0.00 0.00 86 1018.9
20260507235005 5 33 0.0 0.0 0.00 0.00 0.00 85 1018.8
20260507234005 6 33 0.0 0.0 0.00 0.00 0.00 85 1018.8
20260507233008 6 32 0.0 0.0 0.00 0.00 0.00 85 1018.8
20260507232005 6 32 0.0 0.0 0.00 0.00 0.00 84 1018.8
20260507231006 6 32 0.0 0.0 0.00 0.00 0.00 84 1018.7
20260507230008 6 32 0.0 0.0 0.00 0.00 0.00 83 1018.6
20260507225007 6 32 0.0 0.0 0.00 0.00 0.00 82 1018.6
20260507224005 6 32 0.0 0.0 0.00 0.00 0.00 82 1018.4
20260507223008 6 32 0.0 0.0 0.00 0.00 0.00 83 1018.3
20260507222006 6 32 0.0 0.0 0.00 0.00 0.00 83 1018.3
20260507221005 6 32 0.0 0.0 0.00 0.00 0.00 83 1018.3
20260507220008 6 32 0.0 0.0 0.00 0.00 0.00 82 1018.3
20260507215005 6 32 0.0 0.0 0.00 0.00 0.00 82 1018.3
20260507214006 7 32 0.0 0.0 0.00 0.00 0.00 83 1018.3
20260507213008 7 32 0.0 0.0 0.00 0.00 0.00 83 1018.3
20260507212006 7 32 0.0 0.0 0.00 0.00 0.00 84 1018.2
20260507211006 7 32 0.0 0.0 0.00 0.00 0.00 84 1018.2
20260507210008 7 31 0.0 1.6 0.00 0.00 0.00 83 1018.1
20260507205005 7 30 0.0 1.6 0.00 0.00 0.00 82 1017.9